This demonstration page uses our WeatherBlox Daily Observations layout. Learn more.

Left ArrowRight Arrow

Hourly Observations for February 1, 2016

Temp ( °F °C ) Dew Point ( °F °C ) Humidity (%) Winds ( mph kmh ) Pressure ( in mb ) Visibility ( mi km ) Precip ( " mm )
12:51 am 00:51 Cloudy with Light Rain 54 12.2 42 5.6 64 64 S 8 13 29.53 1000 10 16.0934 0.01 0.254
1:51 am 01:51 Mostly Cloudy 56 13.3 39 3.9 53 53 S 15 24 29.45 997 10 16.0934 N/A
2:33 am 02:33 Cloudy with Rain 46 7.8 42 5.6 86 86 WNW 38 61 29.65 1004 7 11.26538 N/A
2:51 am 02:51 Cloudy with Rain 43 6.1 39 3.9 86 86 WNW 37 59 29.57 1001 2.5 4.02335 0.04 1.016
3:00 am 03:00 Cloudy with Heavy Rain 41 5 37 2.8 86 86 WNW 40 65 29.71 1006 2.5 4.02335 0.03 0.762
3:15 am 03:15 Cloudy with Rain 40 4.4 36 2.2 86 86 WNW 35 56 29.71 1006 5 8.0467 0.07 1.778
3:47 am 03:47 Cloudy with Light Rain 41 5 34 1 76 76 NW 28 44 29.71 1006 10 16.0934 0.08 2.032
3:51 am 03:51 Cloudy with Light Rain 41 5 34 1.1 76 76 NW 32 52 29.6 1002 10 16.0934 0.08 2.032
4:51 am 04:51 Cloudy 41 5 34 1.1 76 76 WNW 13 20 29.6 1003 10 16.0934 N/A
5:51 am 05:51 Mostly Cloudy 41 5 33 0.6 73 73 WNW 17 28 29.62 1003 10 16.0934 N/A
6:51 am 06:51 Cloudy 42 5.6 28 -2.2 58 58 WNW 17 28 29.64 1004 10 16.0934 N/A
7:51 am 07:51 Partly Cloudy 42 5.6 26 -3.3 53 53 WNW 17 28 29.65 1004 10 16.0934 N/A
8:51 am 08:51 Mostly Sunny 41 5 26 -3.3 55 55 WNW 22 35 29.67 1005 10 16.0934 N/A
9:51 am 09:51 Mostly Sunny 44 6.7 25 -3.9 47 47 W 24 39 29.67 1005 10 16.0934 N/A
10:51 am 10:51 Partly Cloudy 45 7.2 25 -3.9 46 46 WNW 24 39 29.71 1006 10 16.0934 N/A
11:51 am 11:51 Mostly Sunny 45 7.2 23 -5 42 42 WNW 31 50 29.7 1006 10 16.0934 N/A
12:51 pm 12:51 Partly Cloudy 45 7.2 29 -1.7 54 54 NW 22 35 29.71 1006 10 16.0934 N/A
1:51 pm 13:51 Partly Cloudy 47 8.3 24 -4.4 41 41 WNW 33 54 29.7 1006 10 16.0934 N/A
2:51 pm 14:51 Mostly Cloudy 46 7.8 28 -2.2 50 50 NW 24 39 29.75 1008 10 16.0934 N/A
3:51 pm 15:51 Cloudy 42 5.6 30 -1.1 62 62 NW 22 35 29.8 1009 10 16.0934 N/A
4:51 pm 16:51 Mostly Sunny 72 22.2 24 -4.4 17 17 WSW 8 13 29.66 1004 10 16.0934 N/A
5:51 pm 17:51 Cloudy with Light Rain 38 3.3 32 undefined 79 79 NW 13 20 29.86 1011 10 16.0934 N/A
6:51 pm 18:51 Cloudy 39 3.9 31 -0.6 73 73 WNW 15 24 29.88 1012 10 16.0934 N/A
7:51 pm 19:51 Cloudy 39 3.9 29 -1.7 67 67 NW 14 22 29.89 1012 10 16.0934 N/A
8:51 pm 20:51 Cloudy 39 3.9 29 -1.7 67 67 NW 12 19 29.91 1013 10 16.0934 N/A
9:51 pm 21:51 Cloudy 39 3.9 29 -1.7 67 67 NW 9 15 29.9 1013 10 16.0934 N/A
10:51 pm 22:51 Cloudy 39 3.9 30 -1.1 70 70 NW 9 15 29.91 1013 10 16.0934 N/A
11:51 pm 23:51 Cloudy 39 3.9 28 -2.2 65 65 WNW 10 17 29.9 1012 10 16.0934 N/A

Powered by AerisWeather